Temp
62 62 63 62 63 63 63 63 63 63 63 63 63 63 63 63 62 67 74 87 83 82 85 84 80 82 79 75 81 80 65 61 65 67 68 76 72 79 80 74 78 77 72 74 74
63 63 62 62 62 62 62 62 62 62 62 62 62 63 63 63 59 68 82 83 82 82 85 82 82 81 75 75 77 73 63 68 76 75 72 75 74 74 73 71 69 68 72 73 73
62 62 62 62 62 62 62 62 62 62 62 62 62 63 63 62 66 76 83 83 82 84 87 83 81 78 73 73 75 75 69 76 78 77 77 74 74 77 70 66 70 66 69 71 71
61 61 61 61 62 62 62 62 62 61 61 62 63 63 63 58 66 78 82 82 82 86 86 82 81 75 71 71 77 74 80 80 78 79 76 74 76 72 73 72 76 72 72 72 71
61 61 61 61 61 61 61 61 61 61 61 62 63 64 61 63 73 82 84 82 83 85 84 80 76 73 70 74 78 75 79 81 80 79 77 78 73 72 72 76 77 76 73 71 71
61 60 60 60 60 61 61 60 60 60 61 62 64 64 59 61 80 82 82 83 84 82 81 83 80 80 74 74 75 80 80 78 79 79 78 73 72 74 73 76 74 74 72 72 72
60 60 60 60 60 60 60 60 60 60 61 63 64 66 59 70 79 78 78 80 83 84 80 84 85 78 76 73 82 80 75 77 76 76 74 76 68 68 74 76 73 73 72 73 73
60 60 60 60 60 60 59 58 59 61 63 64 65 58 61 78 75 79 79 81 83 81 82 86 86 78 73 78 79 75 73 65 75 76 75 73 60 70 75 74 71 73 73 74 74
59 59 59 59 59 58 58 58 60 64 64 65 55 56 64 80 76 80 77 82 82 80 80 95 83 73 76 69 65 68 60 65 70 77 74 69 62 72 75 74 71 73 73 74 74
59 59 59 59 58 57 57 58 60 62 64 68 71 58 67 70 74 82 79 82 80 80 82 79 72 68 64 64 56 61 62 67 66 73 74 68 66 71 73 74 72 73 74 74 75
59 58 58 58 57 56 53 59 62 60 57 62 60 65 69 76 75 78 80 80 78 77 67 70 68 64 66 68 70 67 65 68 72 77 72 68 67 70 72 73 72 72 74 74 76
58 58 58 57 57 56 52 60 60 60 55 65 67 67 70 70 69 74 75 74 71 67 67 66 63 70 74 72 70 68 66 66 72 76 73 67 66 71 72 72 74 74 74 75 74
58 58 57 56 55 54 52 57 62 59 52 63 64 64 67 72 69 70 75 70 66 65 64 62 68 76 75 69 69 64 62 65 66 71 71 68 62 64 72 74 76 75 76 75 73
58 58 56 55 57 51 58 58 60 59 49 58 60 69 67 70 67 78 77 74 66 66 67 64 73 74 69 68 69 59 72 73 71 62 57 67 54 59 64 69 73 72 73 71 72
58 57 56 54 48 53 62 56 58 61 42 65 62 73 65 66 65 69 76 74 68 68 67 65 67 68 67 71 73 69 74 71 70 61 58 61 58 56 60 61 68 70 73 70 71
57 57 56 51 47 53 56 56 62 51 44 61 65 61 61 64 66 70 72 73 73 68 64 67 72 69 72 75 76 76 70 66 59 57 53 54 57 56 57 60 65 70 73 70 71
56 55 54 56 55 55 56 61 49 42 60 61 58 60 57 57 62 65 64 60 62 55 53 63 64 69 74 67 70 68 59 51 51 51 51 49 56 58 62 65 65 69 68 69 70
54 53 51 53 51 55 58 57 38 54 53 62 62 59 56 59 57 60 60 59 58 59 52 55 55 67 72 71 66 63 61 53 45 47 51 53 51 60 64 65 65 68 67 67 67
53 47 47 51 54 54 57 44 47 50 59 61 60 56 55 60 60 57 56 57 62 62 58 51 54 68 72 73 73 60 58 60 51 46 50 51 57 64 64 64 65 65 66 67 69
46 46 50 54 54 56 53 46 49 57 62 59 51 56 51 56 56 53 56 61 64 66 63 59 53 61 70 71 69 64 67 57 53 47 44 49 52 55 58 62 63 63 65 66 69
46 51 57 53 53 55 47 47 54 62 63 57 54 55 53 55 54 54 58 64 66 64 65 57 55 59 63 61 64 63 57 55 54 51 47 45 51 60 60 62 61 64 65 66 67
43 50 57 57 51 43 47 52 58 61 62 64 59 60 58 58 56 55 58 65 70 65 62 61 55 51 60 67 67 63 63 59 54 51 46 49 55 64 63 63 64 64 65 65 66
41 43 57 58 46 45 49 56 60 59 60 60 60 62 59 56 54 59 63 73 70 67 63 63 52 49 55 59 59 60 60 55 54 51 49 51 56 62 61 61 63 63 63 63 65
43 47 52 53 48 49 48 52 55 65 63 63 62 60 57 55 57 59 62 71 70 70 71 70 50 55 57 56 60 58 63 60 58 53 50 53 55 57 58 60 61 61 62 63 62
44 44 47 46 49 48 49 54 55 55 61 61 59 59 57 51 55 56 60 65 69 67 62 63 57 54 57 62 63 64 65 63 60 57 60 61 58 59 60 61 62 62 63 63 62
43 43 46 45 47 48 47 48 54 58 57 57 57 64 61 55 60 59 57 56 62 62 60 56 56 55 56 61 62 60 64 63 63 61 58 57 59 60 61 62 61 62 63 62 62
43 46 45 47 47 48 49 53 57 59 60 64 62 59 57 62 66 65 64 65 62 59 59 57 52 51 52 57 60 55 64 65 63 63 63 59 64 62 60 63 62 62 64 63 64
MSLP
1015.30 1014.96 1014.56 1014.26 1013.91 1013.54 1013.12 1012.54 1012.05 1011.51 1011.08 1010.77 1010.32 1009.92 1009.38 1008.74 1007.57 1007.08 1006.25 1004.18 1004.06 1003.99 1004.09 1004.31 1005.06 1004.88 1005.26 1005.26 1005.06 1005.17 1006.20 1006.73 1006.55 1006.69 1007.23 1007.42 1007.67 1008.07 1008.38 1008.84 1009.27 1009.83 1010.50 1011.22 1012.34
1015.33 1014.93 1014.58 1014.25 1013.81 1013.40 1013.06 1012.55 1011.94 1011.40 1010.85 1010.55 1010.16 1009.71 1009.27 1008.80 1008.02 1006.24 1003.93 1003.61 1003.63 1003.80 1004.05 1004.26 1004.46 1004.48 1004.90 1004.88 1004.94 1005.15 1005.85 1005.59 1005.49 1005.92 1006.67 1007.28 1007.75 1008.08 1008.59 1009.09 1009.95 1010.52 1010.96 1011.51 1012.28
1015.38 1014.96 1014.59 1014.17 1013.84 1013.40 1012.88 1012.48 1011.98 1011.40 1010.90 1010.39 1009.99 1009.46 1009.05 1008.76 1007.75 1005.10 1003.61 1003.35 1003.76 1003.78 1003.88 1004.10 1004.26 1004.28 1004.54 1004.59 1004.54 1004.67 1004.82 1004.79 1005.16 1005.62 1006.21 1007.18 1007.78 1008.07 1008.65 1009.20 1009.69 1010.44 1011.19 1011.99 1012.55
1015.51 1015.14 1014.63 1014.19 1013.86 1013.32 1012.85 1012.42 1011.97 1011.50 1010.94 1010.34 1009.94 1009.42 1008.96 1008.65 1006.92 1004.64 1003.91 1003.21 1003.46 1003.81 1003.98 1003.98 1004.08 1004.28 1004.55 1004.56 1004.29 1004.21 1004.10 1004.60 1005.16 1005.78 1006.61 1007.27 1007.78 1008.33 1008.69 1008.96 1009.40 1010.65 1011.25 1011.87 1012.44
1015.61 1015.21 1014.75 1014.18 1013.64 1013.08 1012.61 1012.23 1011.69 1011.37 1010.97 1010.42 1009.92 1009.47 1008.75 1008.01 1005.55 1004.18 1003.91 1003.74 1003.64 1003.79 1003.79 1004.12 1004.15 1004.29 1004.47 1004.30 1003.86 1004.04 1004.61 1004.92 1005.30 1005.82 1006.59 1007.23 1008.13 1008.56 1009.20 1009.36 1010.11 1010.86 1011.57 1011.98 1012.35
1015.60 1015.17 1014.68 1014.05 1013.39 1012.84 1012.37 1011.88 1011.46 1011.02 1010.85 1010.37 1009.84 1009.63 1009.09 1007.32 1003.97 1003.95 1003.93 1003.64 1003.44 1003.53 1003.65 1003.85 1003.89 1003.83 1004.10 1004.15 1004.07 1004.04 1004.67 1005.54 1005.82 1006.31 1006.88 1007.45 1008.24 1008.53 1009.51 1009.80 1010.38 1010.91 1011.43 1011.95 1012.33
1015.48 1015.05 1014.57 1013.99 1013.34 1012.62 1011.95 1011.40 1011.00 1010.64 1010.42 1010.18 1009.80 1009.50 1008.72 1005.36 1003.81 1003.85 1003.71 1003.41 1003.26 1003.28 1003.45 1003.56 1003.43 1003.90 1003.85 1004.13 1003.97 1004.44 1005.14 1005.93 1006.35 1006.56 1007.22 1007.58 1008.65 1008.92 1009.36 1009.92 1010.43 1010.94 1011.31 1011.61 1011.95
1015.38 1014.80 1014.26 1013.74 1013.09 1012.32 1011.55 1011.02 1010.43 1010.04 1009.83 1009.81 1009.64 1009.34 1007.39 1003.98 1003.76 1003.67 1003.22 1003.10 1003.06 1003.12 1003.09 1003.10 1003.36 1003.89 1004.12 1004.26 1004.41 1005.14 1005.49 1006.31 1006.42 1006.55 1007.16 1007.45 1008.67 1009.04 1009.38 1009.80 1010.41 1010.78 1011.02 1011.17 1011.20
1015.42 1014.88 1014.15 1013.40 1012.63 1011.80 1011.02 1010.54 1009.90 1009.46 1009.46 1009.52 1009.49 1008.90 1006.13 1003.82 1003.59 1003.17 1002.88 1002.81 1002.81 1002.92 1002.87 1003.00 1003.56 1004.47 1004.60 1005.22 1005.78 1006.23 1006.24 1006.40 1006.45 1006.56 1007.11 1007.85 1008.51 1008.76 1009.48 1009.72 1010.18 1010.48 1010.56 1010.82 1011.16
1015.30 1014.78 1014.18 1013.41 1012.58 1011.54 1010.42 1009.83 1009.54 1009.56 1009.50 1009.41 1008.99 1008.73 1005.61 1004.73 1004.18 1003.31 1002.76 1002.74 1002.75 1002.87 1003.14 1003.52 1004.38 1005.04 1005.85 1006.18 1006.99 1006.76 1006.53 1006.31 1006.14 1006.41 1007.10 1007.68 1008.15 1008.64 1009.08 1009.51 1009.47 1009.80 1010.18 1010.44 1010.67
1015.33 1014.73 1014.01 1013.27 1012.47 1011.47 1010.22 1009.55 1010.06 1009.76 1009.15 1008.35 1007.95 1007.25 1005.76 1004.87 1004.14 1003.39 1002.90 1002.84 1002.97 1003.42 1004.00 1004.40 1005.10 1005.44 1005.87 1006.30 1006.35 1006.56 1006.64 1006.29 1005.67 1005.43 1006.07 1006.86 1007.86 1008.47 1008.75 1009.21 1009.18 1009.35 1009.94 1009.95 1009.85
1015.21 1014.64 1013.93 1013.06 1012.33 1011.49 1011.20 1010.92 1010.94 1011.09 1009.62 1007.35 1006.90 1006.63 1005.62 1005.29 1005.04 1003.62 1003.05 1003.14 1003.37 1004.08 1004.61 1005.18 1005.25 1005.08 1005.28 1005.67 1005.95 1006.16 1005.95 1005.84 1005.30 1004.97 1005.77 1006.79 1007.76 1008.16 1008.42 1008.07 1008.57 1008.73 1009.28 1009.56 1010.03
1015.22 1014.59 1013.87 1012.90 1012.07 1011.75 1011.92 1011.08 1010.73 1010.68 1010.25 1007.04 1006.18 1005.77 1005.04 1005.07 1004.64 1003.63 1003.21 1003.24 1003.81 1004.47 1004.86 1005.19 1005.05 1004.75 1004.88 1005.23 1005.38 1005.53 1005.53 1005.65 1005.91 1005.81 1006.45 1007.18 1008.14 1008.33 1008.19 1008.36 1008.24 1008.63 1008.85 1009.74 1010.39
1015.23 1014.67 1014.14 1013.02 1012.20 1012.60 1011.48 1010.73 1010.53 1010.59 1009.93 1007.08 1005.72 1004.57 1004.60 1004.36 1003.89 1002.87 1002.88 1003.12 1003.93 1004.43 1005.23 1005.18 1004.53 1004.36 1004.32 1004.66 1004.90 1005.09 1004.99 1005.20 1005.94 1006.71 1007.17 1007.22 1008.37 1008.37 1008.25 1008.30 1008.21 1008.53 1008.84 1009.86 1010.03
1015.25 1014.77 1014.41 1014.18 1013.87 1012.84 1011.02 1010.59 1010.17 1010.16 1009.10 1006.01 1004.87 1004.10 1004.29 1004.32 1003.49 1002.88 1002.66 1002.84 1003.73 1004.38 1004.99 1004.75 1004.31 1003.99 1004.00 1004.18 1004.46 1004.84 1004.65 1005.29 1005.68 1006.81 1007.45 1008.14 1008.52 1008.43 1008.63 1008.59 1008.30 1008.26 1009.03 1009.54 1009.72
1015.00 1014.69 1014.42 1014.21 1014.02 1011.63 1010.87 1010.49 1010.11 1010.32 1008.13 1005.62 1004.50 1004.19 1004.41 1004.09 1003.39 1002.92 1002.84 1002.88 1003.44 1004.24 1004.74 1004.81 1004.27 1003.92 1003.74 1003.73 1003.94 1004.22 1004.87 1005.80 1006.88 1007.53 1008.49 1008.70 1008.98 1009.12 1008.89 1008.56 1008.48 1008.67 1008.88 1009.29 1009.25
1014.40 1014.08 1014.35 1014.07 1012.32 1011.12 1010.95 1010.75 1011.12 1009.93 1007.49 1006.30 1005.33 1004.76 1004.50 1004.25 1003.79 1003.30 1003.41 1003.64 1004.06 1004.98 1005.25 1005.22 1004.61 1003.89 1003.58 1003.79 1003.93 1004.62 1006.15 1007.22 1008.14 1008.96 1009.35 1009.14 1009.53 1008.99 1008.61 1008.61 1008.73 1008.39 1008.70 1009.28 1009.63
1013.62 1013.01 1012.44 1011.98 1011.35 1011.29 1011.32 1011.21 1011.29 1009.37 1008.05 1006.56 1005.79 1005.11 1004.92 1004.41 1004.13 1004.03 1004.15 1004.59 1004.69 1005.02 1006.10 1005.99 1005.13 1003.94 1003.50 1003.64 1004.01 1004.96 1006.17 1007.53 1008.81 1009.97 1009.78 1009.39 1009.49 1008.22 1008.70 1008.85 1008.70 1008.45 1009.02 1009.52 1010.34
1012.93 1012.51 1012.35 1010.85 1011.13 1011.49 1011.62 1011.93 1010.64 1009.51 1008.22 1007.20 1006.10 1005.77 1005.30 1004.66 1004.39 1004.59 1004.85 1005.04 1004.87 1005.00 1005.69 1006.05 1005.41 1004.10 1003.37 1003.12 1003.68 1005.05 1006.05 1006.84 1008.66 1010.23 1010.38 1010.33 1009.58 1008.16 1008.19 1008.91 1009.08 1009.55 1009.69 1010.36 1010.81
1013.40 1012.97 1011.71 1010.70 1010.91 1011.27 1011.62 1011.44 1010.41 1009.15 1007.99 1007.31 1007.00 1006.46 1006.07 1005.36 1005.01 1004.93 1004.85 1004.31 1004.52 1004.64 1004.50 1005.63 1005.68 1004.51 1003.62 1003.35 1003.71 1004.24 1005.45 1007.16 1008.65 1010.19 1011.00 1010.70 1010.15 1009.15 1008.52 1008.75 1009.44 1009.86 1010.37 1010.60 1010.88
1013.44 1012.75 1011.37 1010.92 1011.26 1011.35 1011.77 1011.16 1009.86 1008.42 1007.99 1007.39 1007.06 1006.82 1006.36 1005.86 1005.43 1005.10 1004.69 1003.84 1003.58 1004.22 1004.60 1005.50 1005.93 1005.41 1004.35 1004.15 1004.27 1004.93 1005.73 1007.39 1008.72 1009.60 1010.52 1010.73 1009.76 1007.70 1007.93 1008.87 1009.66 1010.12 1010.73 1011.04 1011.20
1013.97 1013.04 1011.55 1011.36 1011.63 1012.09 1011.58 1010.35 1009.15 1008.15 1007.50 1007.16 1006.85 1006.60 1006.31 1005.82 1005.37 1005.01 1004.35 1003.17 1002.40 1003.27 1004.64 1004.91 1005.65 1005.99 1005.09 1004.12 1004.13 1004.44 1005.28 1006.37 1008.33 1009.84 1010.22 1009.97 1008.46 1007.49 1007.97 1009.03 1009.62 1010.70 1011.33 1011.62 1011.74
1014.96 1013.78 1011.74 1011.57 1011.90 1011.99 1011.03 1009.92 1009.00 1008.21 1007.63 1007.20 1006.73 1006.16 1005.80 1005.72 1005.50 1004.52 1003.53 1002.02 1002.52 1003.00 1003.51 1004.54 1005.51 1005.87 1005.57 1004.84 1004.56 1004.53 1004.91 1005.70 1006.81 1008.02 1009.01 1009.48 1008.37 1007.97 1008.64 1009.42 1010.03 1010.73 1011.51 1012.03 1012.21
1015.20 1014.33 1012.70 1012.17 1012.10 1011.59 1011.04 1010.10 1009.13 1008.12 1007.67 1007.26 1006.79 1006.16 1005.98 1005.67 1005.24 1004.50 1003.41 1002.19 1002.12 1002.40 1002.32 1003.20 1004.95 1005.33 1005.38 1004.97 1004.14 1004.29 1004.45 1005.23 1005.85 1007.31 1008.14 1008.09 1007.73 1008.18 1008.88 1009.77 1010.44 1010.86 1011.39 1011.95 1012.57
1015.52 1015.36 1014.48 1013.37 1012.64 1011.78 1011.04 1010.25 1009.42 1008.67 1007.85 1007.25 1006.75 1006.52 1006.27 1006.03 1005.32 1004.69 1003.70 1002.94 1002.33 1002.46 1002.97 1003.22 1004.68 1004.89 1004.42 1004.04 1004.00 1003.74 1003.89 1004.56 1005.33 1005.41 1006.18 1006.14 1007.14 1006.81 1007.83 1008.92 1010.05 1011.02 1011.83 1012.44 1012.96
1016.41 1016.11 1014.83 1013.84 1012.97 1012.00 1011.20 1010.47 1009.74 1009.03 1008.57 1007.65 1007.21 1006.68 1006.49 1006.24 1005.19 1004.81 1004.33 1003.53 1002.93 1002.85 1003.18 1003.90 1004.53 1004.80 1004.61 1004.09 1003.80 1003.71 1003.45 1003.82 1004.33 1004.66 1005.24 1005.74 1006.37 1006.35 1007.73 1008.99 1010.09 1010.97 1011.73 1012.31 1013.11
1017.11 1016.49 1015.92 1014.29 1013.21 1012.38 1011.28 1010.54 1009.87 1009.54 1008.46 1007.80 1007.53 1007.35 1006.35 1005.33 1005.11 1004.52 1004.26 1003.70 1003.26 1003.43 1003.87 1004.45 1005.12 1005.59 1005.26 1004.35 1004.02 1003.98 1003.01 1002.96 1003.13 1003.74 1004.40 1005.14 1005.08 1006.24 1007.56 1008.52 1009.29 1010.31 1011.27 1011.92 1012.54
Wind_Speed
16 16 16 16 16 16 16 17 17 18 18 18 18 18 18 19 20 4 5 9 5 7 5 3 5 4 4 2 3 3 5 0 3 2 4 6 4 2 5 6 2 3 5 14 15
16 17 17 17 17 17 16 17 18 19 20 19 18 18 17 18 3 4 10 7 9 10 2 3 5 4 2 2 1 4 4 7 5 5 6 6 3 5 3 3 4 11 15 18 16
18 18 18 18 18 18 18 17 18 19 19 19 18 18 17 12 4 2 11 9 11 6 5 2 1 2 4 2 3 4 5 5 2 7 9 7 4 2 8 1 4 14 18 16 14
18 18 18 19 18 18 18 18 18 18 18 19 17 18 19 3 4 2 6 5 10 7 4 2 4 4 4 4 3 1 2 3 8 8 7 7 5 5 2 2 10 14 16 13 14
18 18 18 19 19 19 19 19 19 17 16 16 16 15 5 5 9 2 5 3 7 6 5 1 2 1 3 4 2 2 4 5 9 9 7 8 5 4 4 8 10 13 12 12 11
17 18 19 19 20 20 20 19 20 18 15 14 13 12 2 4 2 5 8 0 3 3 4 4 3 2 1 3 3 1 6 4 8 6 6 9 4 4 3 9 8 10 9 8 9
19 19 19 19 21 22 22 21 21 19 15 10 8 3 1 16 1 7 4 2 4 5 3 4 4 1 2 3 3 6 7 5 3 3 4 13 1 4 7 10 9 8 7 8 8
20 21 21 21 22 22 22 22 22 19 12 7 4 1 9 5 4 9 4 1 4 3 3 6 5 1 1 1 7 5 6 3 4 4 7 3 2 2 10 12 10 10 9 10 11
19 20 22 23 23 23 24 23 20 8 4 2 1 3 11 10 4 5 2 2 1 2 4 4 5 3 5 5 6 6 2 2 1 6 5 0 3 6 10 12 10 10 10 10 8
20 21 22 23 24 24 26 20 6 3 1 2 2 3 5 4 6 8 3 2 1 1 3 4 5 4 5 6 2 1 3 3 6 6 5 7 4 11 12 12 13 11 10 10 9
20 21 23 24 24 26 12 3 6 4 2 6 3 4 5 9 3 4 4 3 3 7 3 3 5 5 6 5 5 3 5 8 6 8 9 11 6 14 14 13 13 12 10 10 13
21 21 22 25 24 16 4 5 5 3 10 7 8 6 5 3 5 6 2 5 4 4 4 5 5 4 5 6 5 6 5 4 4 5 10 7 4 11 15 19 15 13 13 12 6
21 21 22 25 26 4 2 2 2 3 2 9 5 4 5 9 7 8 6 4 4 5 4 7 5 5 4 3 3 3 3 0 3 5 5 6 3 5 9 8 10 7 7 4 4
20 20 20 29 3 5 5 1 7 4 6 8 4 6 3 5 5 7 6 6 2 10 8 5 5 5 1 1 4 5 5 4 4 4 4 3 5 6 5 11 11 8 6 9 13
19 18 15 9 6 4 3 6 5 2 4 3 1 1 2 6 1 2 4 5 8 6 7 8 4 4 3 4 5 7 2 3 3 5 5 3 4 5 1 8 15 10 8 10 12
20 16 15 1 2 8 8 8 3 8 6 6 1 1 3 5 3 1 3 4 4 4 3 6 3 1 6 3 5 6 4 7 4 3 2 3 4 6 4 5 3 4 8 13 14
21 17 8 2 5 1 6 3 7 4 5 6 3 3 2 4 3 2 3 3 7 5 4 4 3 3 3 2 4 7 7 5 5 5 6 3 4 8 7 5 6 10 10 9 6
24 22 5 6 4 4 2 6 2 3 5 5 5 2 1 3 2 3 3 2 2 6 4 6 8 6 4 7 6 5 8 7 3 2 4 1 3 7 1 3 4 6 8 6 5
21 2 3 4 8 1 6 4 8 5 4 7 8 7 6 3 4 2 4 6 7 7 7 6 6 5 3 4 7 3 3 5 8 3 4 4 6 9 2 2 3 6 8 7 5
4 4 4 1 7 4 6 5 4 4 4 3 2 3 5 5 2 4 6 5 7 10 4 6 2 3 5 3 2 4 5 3 3 4 3 4 5 7 7 7 3 4 4 4 2
3 3 4 1 1 6 5 7 5 7 4 1 1 4 3 3 2 3 5 5 6 6 6 7 5 6 2 3 7 1 1 6 6 4 7 4 8 7 10 7 7 3 5 5 3
3 3 3 2 5 1 4 6 3 4 2 5 2 7 6 2 4 5 7 8 8 11 11 8 7 5 11 5 3 3 7 7 7 5 2 2 8 3 4 7 6 6 6 6 7
2 3 3 3 4 1 4 3 3 2 4 2 4 6 3 3 3 6 5 7 5 6 10 9 1 1 10 8 2 4 5 4 5 4 8 8 8 3 5 6 6 8 8 8 8
2 2 4 3 1 4 2 3 3 3 5 4 5 1 2 3 6 5 4 3 2 7 9 11 5 8 10 10 5 4 5 5 5 5 7 7 4 6 6 8 6 7 8 10 8
3 1 2 1 2 0 1 1 2 4 3 3 3 4 1 4 5 4 3 5 4 1 4 6 9 8 7 7 5 5 5 7 8 2 7 9 11 9 14 12 9 8 7 10 10
2 3 5 2 3 1 3 2 2 2 2 5 4 5 7 6 7 5 1 3 6 1 3 3 3 7 5 5 7 3 1 6 5 4 3 7 5 3 10 8 9 10 10 10 10
3 3 1 3 2 1 4 3 3 3 6 10 5 7 7 12 6 9 8 9 6 3 3 4 6 4 8 3 6 1 9 7 4 5 7 7 9 10 9 12 15 13 13 12 10
Wind_Direction
360 357 354 352 348 345 342 336 334 331 329 326 325 325 326 324 317 172 229 219 179 179 165 155 190 203 144 231 204 122 62 114 185 167 120 138 126 58 80 118 61 99 132 131 135
355 353 349 347 345 341 339 334 330 331 327 325 325 325 327 331 314 297 256 232 175 167 111 46 321 348 80 187 253 99 111 213 192 143 129 139 102 118 123 99 65 86 110 126 138
355 351 346 346 342 340 336 332 329 328 326 322 324 326 325 329 323 275 317 240 194 183 132 175 253 43 40 357 165 197 181 174 107 107 119 118 113 98 125 226 197 156 144 142 148
356 352 346 340 337 335 332 328 326 325 323 318 322 325 320 299 155 70 329 32 163 170 137 45 359 23 28 7 309 206 17 85 125 116 109 132 98 109 316 199 117 146 144 149 162
353 350 344 339 335 334 330 325 324 323 319 314 317 328 348 7 251 78 11 133 136 152 137 141 29 79 352 319 350 81 28 41 112 119 123 121 96 114 67 92 106 132 152 164 175
349 347 343 339 335 331 326 321 322 319 316 308 312 321 13 283 254 5 351 272 138 140 156 150 190 247 242 330 43 267 79 77 100 122 109 114 130 80 127 122 128 148 166 172 188
347 345 340 336 333 328 322 320 318 314 310 300 303 318 108 236 344 324 285 204 196 162 173 198 171 32 354 347 268 106 89 64 89 126 94 117 70 152 151 145 161 172 189 191 200
342 341 338 334 330 324 319 318 314 308 297 275 255 101 252 253 292 301 219 187 206 219 216 161 146 125 132 353 22 61 72 113 232 145 174 90 218 187 163 163 184 188 196 212 214
339 338 335 333 330 323 318 317 309 305 213 178 165 87 271 311 348 312 254 205 239 169 232 124 100 102 32 65 29 10 154 206 202 207 166 137 184 189 177 184 191 200 206 213 230
337 337 334 332 329 324 316 306 276 323 186 209 272 14 294 308 292 310 258 246 102 352 75 67 58 80 49 63 133 349 20 275 234 204 184 178 231 169 182 200 203 204 203 213 215
337 336 333 332 328 328 338 31 14 348 59 215 198 265 281 295 299 306 310 130 109 60 136 19 85 213 184 155 158 175 211 236 251 217 173 199 172 185 190 209 215 211 223 220 216
336 335 333 331 330 327 318 60 98 171 305 249 243 260 266 78 309 297 330 138 115 168 133 30 211 182 147 155 165 192 230 261 282 295 176 153 192 195 191 213 215 205 208 216 231
332 333 334 330 324 350 317 214 47 40 229 295 211 208 215 146 214 259 144 117 114 136 157 174 217 162 142 122 34 218 246 215 269 360 41 107 336 196 218 211 222 216 214 168 139
328 330 337 331 28 325 296 7 313 192 47 282 288 290 136 158 262 211 204 135 141 185 148 229 232 210 205 118 136 310 209 252 143 118 219 177 258 239 230 216 231 219 186 125 126
323 325 332 335 299 308 312 321 308 64 359 270 253 146 86 170 276 289 210 68 167 158 124 236 174 134 141 203 168 239 288 277 325 144 100 274 86 274 122 228 224 218 155 145 145
316 317 328 354 265 248 326 322 48 41 259 336 102 99 113 349 318 29 124 68 153 139 74 207 318 159 176 180 184 252 25 34 52 95 53 303 122 284 209 227 276 185 172 168 174
311 306 290 265 237 29 318 40 41 150 321 331 338 10 175 193 282 61 141 140 144 122 263 355 235 251 157 12 350 74 60 341 354 18 213 299 78 243 269 298 243 213 169 173 165
313 308 244 208 241 294 24 54 179 266 262 309 335 298 214 166 225 45 81 162 71 91 99 154 322 180 173 168 184 182 154 153 248 234 280 314 231 254 234 332 341 104 125 129 132
318 327 269 261 195 333 77 90 209 212 286 336 333 55 343 26 116 124 192 200 203 169 155 130 264 279 224 134 143 168 175 185 107 14 71 288 293 299 286 64 69 106 141 141 160
324 342 273 70 152 99 83 219 234 222 325 353 333 35 352 315 54 161 194 211 198 189 150 198 347 241 269 111 41 152 156 75 12 137 223 288 273 241 257 236 159 179 116 127 138
22 11 325 107 85 53 149 225 261 242 210 261 235 323 264 277 238 215 220 250 197 183 131 136 120 279 87 167 192 53 29 54 114 116 158 170 261 217 213 189 189 187 99 121 82
347 42 337 70 61 350 158 198 238 276 244 264 209 216 223 265 267 237 223 230 161 151 158 197 155 192 219 237 174 152 209 151 121 230 140 157 266 309 190 140 163 115 118 82 77
25 275 332 40 120 276 288 270 231 275 262 250 272 211 191 255 286 215 217 262 139 139 164 178 239 263 327 348 74 195 187 140 112 87 190 143 257 3 100 138 132 136 122 118 112
59 34 347 53 290 117 46 291 305 275 253 236 268 246 302 278 225 288 307 305 355 210 176 123 136 167 215 208 179 199 180 167 139 136 169 220 218 237 190 171 144 131 131 124 124
27 349 156 308 315 243 219 280 304 341 295 281 273 215 31 285 307 231 243 310 321 33 81 118 190 171 227 209 185 243 194 176 208 192 160 219 191 214 189 178 153 143 128 125 127
43 22 347 259 297 267 122 181 218 283 230 282 209 311 288 228 207 265 275 235 245 323 100 6 232 165 236 178 188 239 204 181 174 152 265 124 255 166 125 116 132 149 158 148 153
328 322 105 281 340 111 215 197 228 2 264 242 303 321 261 247 253 246 224 259 252 297 157 132 130 111 241 180 118 331 218 198 169 178 147 169 215 154 141 158 170 162 165 168 164